Weather History for West Palm Beach, FL

Change the Weather History Date:

Monday, April 8, 2013

  Actual Average Record
Temperature  
Mean Temperature 71 °F 73 °F  
Max Temperature 80 °F 81 °F 92 °F (2004)
Min Temperature 61 °F 65 °F 45 °F (1971)
Degree Days  
Heating Degree Days 0 0  
Month to date heating degree days 0 0  
Since 1 July heating degree days 164 229  
Cooling Degree Days 6 8  
Month to date cooling degree days 70 61  
Year to date cooling degree days 541 489  
Growing Degree Days 20 (Base 50)    
Moisture  
Dew Point 60 °F    
Average Humidity 73    
Maximum Humidity 93    
Minimum Humidity 52    
Precipitation  
Precipitation T in 0.12 in 6.32 in (1918)
Month to date precipitation 1.92 1.09  
Year to date precipitation 6.08 11.63  
Snow  
Snow 0.00 in - - ()
Month to date snowfall 0.0  
Since 1 July snowfall 0.0  
Snow Depth 0.00 in    
Sea Level Pressure  
Sea Level Pressure 30.10 in    
Wind  
Wind Speed 8 mph (ESE)    
Max Wind Speed 16 mph    
Max Gust Speed 21 mph    
Visibility 10 miles    
Events Rain    
T = Trace of Precipitation, MM = Missing Value Source: NWS Daily Summary

Daily Weather History Graph

Daily Weather History Graph

Search for Another Location

Airport:

Trip Planner

Search our weather history database for the weather conditions in past years. The results will help you decide how hot, cold, wet, or windy it might be!

Date:

Astronomy

Apr. 08, 2013 Rise Set
Actual Time 7:03 AM EDT 7:41 PM EDT
Civil Twilight 6:40 AM EDT 8:04 PM EDT
Nautical Twilight 6:12 AM EDT 8:32 PM EDT
Astronomical Twilight 5:44 AM EDT 9:00 PM EDT
Moon 5:44 AM EDT (4/8) 6:19 PM EDT (4/8)
Length of Visible Light 13h 24m
Length of Day
12h 37m
Waning Crescent, 3% of the Moon is Illuminated
Apr 8
Waning Crescent
Apr 10
New
Apr 18
First Quarter
Apr 25
Full
May 2
Last Quarter

Hourly Weather History & Observations

Time (EDT) Temp. Dew Point Humidity Pressure Visibility Wind Dir Wind Speed Gust Speed Precip Events Conditions
12:53 AM 72.0 °F 57.9 °F 61% 30.10 in 10.0 mi East 5.8 mph - N/A   Scattered Clouds
1:53 AM 70.0 °F 59.0 °F 68% 30.08 in 10.0 mi East 3.5 mph - N/A   Partly Cloudy
2:53 AM 69.1 °F 57.9 °F 68% 30.07 in 10.0 mi ESE 4.6 mph - N/A   Partly Cloudy
3:53 AM 63.0 °F 57.0 °F 81% 30.06 in 10.0 mi Calm Calm - N/A   Partly Cloudy
4:53 AM 63.0 °F 57.9 °F 84% 30.05 in 10.0 mi Calm Calm - N/A   Partly Cloudy
5:53 AM 63.0 °F 59.0 °F 87% 30.06 in 10.0 mi Calm Calm - N/A   Partly Cloudy
6:53 AM 63.0 °F 59.0 °F 87% 30.07 in 10.0 mi Calm Calm - N/A   Partly Cloudy
7:53 AM 63.0 °F 60.1 °F 90% 30.09 in 10.0 mi NW 3.5 mph - N/A   Scattered Clouds
8:53 AM 72.0 °F 62.1 °F 71% 30.11 in 10.0 mi SSW 3.5 mph - N/A   Mostly Cloudy
9:53 AM 77.0 °F 60.1 °F 56% 30.12 in 10.0 mi ESE 10.4 mph - N/A   Mostly Cloudy
10:53 AM 78.1 °F 59.0 °F 52% 30.14 in 10.0 mi East 11.5 mph - N/A   Mostly Cloudy
11:53 AM 78.1 °F 60.1 °F 54% 30.14 in 10.0 mi ESE 13.8 mph 20.7 mph N/A   Mostly Cloudy
12:53 PM 79.0 °F 61.0 °F 54% 30.13 in 10.0 mi SE 15.0 mph 19.6 mph N/A   Scattered Clouds
1:53 PM 79.0 °F 60.1 °F 52% 30.11 in 10.0 mi East 10.4 mph - N/A   Mostly Cloudy
2:53 PM 79.0 °F 60.1 °F 52% 30.09 in 10.0 mi East 12.7 mph 17.3 mph N/A   Mostly Cloudy
3:53 PM 78.1 °F 60.1 °F 54% 30.08 in 10.0 mi ESE 8.1 mph 17.3 mph N/A   Scattered Clouds
4:53 PM 78.1 °F 61.0 °F 56% 30.07 in 10.0 mi East 10.4 mph - N/A   Scattered Clouds
5:53 PM 77.0 °F 60.1 °F 56% 30.08 in 10.0 mi East 10.4 mph - N/A   Scattered Clouds
6:53 PM 75.9 °F 61.0 °F 60% 30.09 in 10.0 mi East 9.2 mph - N/A   Scattered Clouds
7:53 PM 75.0 °F 61.0 °F 62% 30.10 in 10.0 mi East 6.9 mph - N/A   Scattered Clouds
8:53 PM 75.0 °F 61.0 °F 62% 30.10 in 10.0 mi East 8.1 mph - N/A   Scattered Clouds
9:53 PM 73.9 °F 63.0 °F 68% 30.12 in 10.0 mi East 9.2 mph - 0.00 in   Scattered Clouds
10:53 PM 73.9 °F 63.0 °F 68% 30.13 in 10.0 mi East 10.4 mph - N/A   Scattered Clouds
11:53 PM 73.0 °F 64.0 °F 73% 30.13 in 10.0 mi ESE 9.2 mph - 0.00 in Rain Light Rain